Home > Weather > Worms > Past weeks

Flag for Germany Past Weather in Worms, Rhineland-Palatinate, Germany — Yesterday and Last 2 Weeks

Now
77 °F

Broken clouds.


Feels Like: 79 °F
Forecast: 65 / 80 °F
Wind: 6 mph from Southwest

Location: Mannheim City

Current Time: Jul 24, 2016 at 2:54:30 PM

Latest Report: Jul 24, 2016 at 2:20 PM


Visibility: N/A

Pressure: 30.07 "Hg

Humidity: 69%

Dew Point: 66 °F

Location of WormsLocation

Past Weather in Worms — Graph

°F

Worms Temperature Yesterday

Maximum temperature yesterday: 81 °F (at 5:20 PM)
Minimum temperature yesterday: 66 °F (at 7:20 AM)
Average temperature yesterday: 74 °F

High & Low Weather Summary for the Past Weeks

 TemperatureHumidityPressure
High95 °F (Jul 20, 4:50 PM)100% (Jul 13, 5:50 AM)30.33 "Hg (Jul 13, 5:50 AM)
Low55 °F (Jul 16, 7:20 AM)20% (Jul 20, 5:50 PM)29.83 "Hg (Jul 10, 6:20 PM)
Average74 °F60%30.05 "Hg
* Reported Jul 9 1:20 PM — Jul 24 1:20 PM, Worms, Weather by CustomWeather, © 2016

Note: Actual official high and low records may vary slightly from our data, if they occured in-between our weather recording intervals... More about our weather records

Advertising

Worms Weather History for the Previous 24 Hours

Scroll right to see more
 ConditionsComfort  
Time TempWeatherWind HumidityBarometerVisibility
1:20 PM
Sun, Jul 24
77 °FBroken clouds.3 mph69%30.09 "HgN/A
12:50 PM75 °FScattered clouds.3 mph74%30.09 "HgN/A
12:20 PM73 °FPartly sunny.5 mph78%30.09 "HgN/A
11:50 AM73 °FMostly cloudy.3 mph78%30.09 "HgN/A
11:20 AM72 °FBroken clouds.2 mph88%30.09 "HgN/A
10:50 AM72 °FLight rain. Broken clouds.2 mph94%30.09 "Hg4 mi
10:20 AM70 °FPartly sunny.2 mph100%30.09 "Hg4 mi
9:50 AM68 °FLight rain. Partly sunny.5 mph100%30.09 "Hg4 mi
9:20 AM70 °FLight rain. Low clouds.3 mph100%30.09 "Hg4 mi
8:50 AM70 °FLight rain. Low clouds.3 mph100%30.09 "Hg4 mi
8:20 AM70 °FLight rain. Broken clouds.2 mph100%30.07 "Hg5 mi
7:50 AM68 °FPartly sunny.2 mph100%30.07 "Hg4 mi
4:50 AM70 °FMostly cloudy.3 mph100%30.07 "Hg4 mi
4:20 AM70 °FMostly cloudy.2 mph100%30.07 "Hg6 mi
7:20 PM
Sat, Jul 23
75 °FPassing clouds.8 mph69%30.01 "HgN/A
6:50 PM75 °FScattered clouds.7 mph74%30.04 "HgN/A
6:20 PM75 °FPartly sunny.7 mph78%30.04 "HgN/A
5:50 PM75 °FPartly sunny.10 mph74%30.01 "HgN/A
5:20 PM81 °FScattered clouds.6 mph58%30.01 "HgN/A
4:50 PM79 °FScattered clouds.5 mph61%30.04 "HgN/A
4:20 PM79 °FPartly sunny.5 mph65%30.04 "HgN/A
3:50 PM77 °FScattered clouds.2 mph61%30.04 "HgN/A
3:20 PM77 °FPassing clouds.3 mph65%30.04 "HgN/A
2:50 PM77 °FScattered clouds.2 mph65%30.04 "HgN/A
2:20 PM73 °FBroken clouds.6 mph83%30.04 "HgN/A
Weather by CustomWeather, © 2016

See weather overviewHow to use our weather pages